Regional Weather Roundup
Issued by NWS Kansas City/Pleasant Hill, MO

Home | Current Version | Previous Version | Graphics & Text | Print | Product List | Glossary Off
Versions: 1 2 3 4 5 6 7 8 9 10 11 12 13 14 15 16 17 18 19 20 21 22 23 24 25 26 27

000
ASUS43 KEAX 180910
RWREAX

WEATHER ROUNDUP FOR EASTERN KANSAS AND NORTHWEST MISSOURI
NATIONAL WEATHER SERVICE KANSAS CITY/PLEASANT HILL MO
400 AM CDT WED OCT 18 2017

KSZ040-057-103>105-MOZ028-029-037-043-181000-
...KANSAS CITY METROPOLITAN AREA...

CITY           SKY/WX    TMP DP  RH WIND       PRES   REMARKS
K.C. INTL      CLEAR     55  46  71 SW14      30.05F
K.C. DOWNTOWN  CLEAR     58  47  66 SW12      30.06F
LEES SUMMIT    CLEAR     54  45  71 S15       30.08F
OLATHE - IXD   CLEAR     49  45  86 S8        30.08F
OLATHE - OJC   CLEAR     49  45  86 S7        30.08F
LAWRENCE       CLEAR     48  45  89 E3        30.06F

$$

MOZ001>008-011>017-020>025-030>033-038>040-044>046-053-054-181000-
...NORTHERN AND CENTRAL MISSOURI...

CITY           SKY/WX    TMP DP  RH WIND       PRES   REMARKS
ST. JOSEPH     CLEAR     53  47  79 S8        30.04F
MOSBY          SUNNY     46  45  93 CALM      30.07F
WARRENSBURG    CLEAR     48  43  81 S8        30.10S
WHITEMAN AFB   CLEAR     48  42  81 S9        30.06F
CLINTON        PTCLDY    50  43  76 S7        30.12F HAZE
SEDALIA        CLEAR     49  44  83 S9        30.12F
WARSAW         NOT AVBL
CHILLICOTHE      N/A     49  46  90 CALM      30.09F
KIRKSVILLE     CLEAR     50  44  80 S7        30.10F

$$

MOZ041-047>049-056>058-063>065-088>090-097-181000-
...EASTERN AND SOUTHERN MISSOURI...

CITY           SKY/WX    TMP DP  RH WIND       PRES   REMARKS
ST. LOUIS INTL CLEAR     52  42  69 S5        30.19S
SPIRIT OF STL  CLEAR     42  40  92 CALM      30.18S
COLUMBIA       CLEAR     47  41  80 S9        30.14F
JEFFERSON CITY CLEAR     50  40  68 E5        30.16S
ROLLA          CLEAR     52  40  63 S15       30.17F
OSAGE BEACH    CLEAR     48  40  73 S3        30.16F
SPRINGFIELD    CLEAR     47  40  76 S10       30.15F
BRANSON        CLEAR     45  39  81 CALM      30.18F
JOPLIN         CLEAR     50  43  77 S10       30.13F
WEST PLAINS    CLEAR     49  38  65 S5        30.20F

$$

IAZ060-094-KSZ022-034>040-054-083-096-NEZ052-066-093-181000-
...KANSAS...SOUTHEAST NEBRASKA AND IOWA...

CITY           SKY/WX    TMP DP  RH WIND       PRES   REMARKS
TOPEKA         CLEAR     55  47  74 S10       30.03F
MANHATTAN      CLEAR     50  44  80 SW6       30.00F
EMPORIA        CLEAR     49  44  83 S14       30.03F
CHANUTE        CLEAR     49  45  86 SE9       30.09F
WICHITA        CLEAR     52  46  80 SE12      30.02F
OMAHA          CLEAR     50  44  80 SE9       29.94F
LINCOLN        CLEAR     53  46  77 S10       29.95F
FALLS CITY     CLEAR     53  46  77 S9        29.99F
LAMONI         CLEAR     51  45  79 S8        30.03F
DES MOINES     CLEAR     56  46  69 S13       29.98F

$$





USA.gov is the U.S. government's official web portal to all federal, state and local government web resources and services.